Temp
69 74 79 80 80 79 79 79 78 78 78 78 79 78 78 78 78 78 78 78 78 79 79 79 79 79 79 78 78 78 78 78 78 77 76 77 77 78 77 76 75 73 78
71 77 79 80 79 79 79 78 78 78 78 79 80 79 78 78 78 78 78 78 78 79 79 79 79 79 78 78 77 77 77 76 75 74 74 74 75 77 77 76 75 74 77
72 77 80 78 78 78 78 78 78 78 78 78 78 78 78 79 78 78 78 78 78 79 79 79 78 78 78 77 76 76 76 76 75 74 73 72 73 77 76 76 76 76 77
75 74 77 78 78 78 78 77 78 78 78 78 78 78 78 78 79 78 78 78 78 79 79 79 78 77 77 77 76 76 76 76 74 73 70 71 74 76 76 76 76 76 76
75 75 77 77 78 78 77 78 77 78 78 78 78 78 78 78 79 78 78 78 77 77 77 77 77 76 76 76 76 75 75 75 73 70 67 67 68 75 76 76 76 75 75
72 74 76 76 75 74 76 77 78 78 78 78 77 77 78 78 78 78 78 77 76 76 76 76 77 76 75 76 76 76 75 74 72 64 65 68 67 76 76 75 75 75 75
71 74 75 76 76 77 76 76 77 77 77 78 78 77 78 78 78 78 77 76 76 76 76 77 76 76 75 75 76 76 75 72 65 63 64 65 66 77 76 75 75 75 75
66 69 74 74 75 75 75 76 76 76 76 77 77 77 78 78 78 78 77 76 76 76 76 76 76 76 75 75 76 75 74 71 68 64 64 64 69 76 76 75 75 75 75
63 65 66 67 72 73 74 74 74 74 75 76 76 76 75 75 76 77 76 76 76 76 76 76 76 76 75 75 75 74 72 71 64 64 67 64 69 77 77 75 75 75 75
62 61 62 63 65 66 67 73 72 72 72 73 74 73 72 71 72 74 74 74 75 75 75 75 75 75 75 74 74 73 71 70 63 64 65 65 71 77 77 75 75 75 75
60 59 59 59 60 61 65 69 68 69 71 70 70 69 68 69 70 70 70 71 72 74 74 75 75 75 73 72 72 71 69 64 62 62 63 69 73 76 77 76 75 75 75
56 57 57 57 57 59 66 60 59 65 64 66 67 68 68 68 68 71 68 69 71 72 72 74 74 74 71 68 69 69 67 65 62 62 63 69 73 76 77 76 75 75 75
55 55 57 57 57 56 57 57 55 56 57 62 63 66 67 69 71 67 67 68 67 67 68 70 70 70 68 67 67 67 66 64 63 62 66 69 73 76 77 76 75 74 74
54 54 55 56 56 56 54 54 54 53 54 55 60 63 64 65 65 67 67 67 66 67 67 67 68 69 68 68 67 66 66 65 64 63 62 67 71 75 77 77 75 74 74
52 54 54 55 55 57 56 53 53 53 53 54 56 59 62 63 66 66 66 68 67 66 67 67 67 67 67 67 66 66 65 65 64 65 62 64 68 72 75 77 76 75 75
52 52 53 55 55 55 55 54 53 52 54 54 54 57 60 60 62 63 64 65 66 68 68 68 67 66 66 66 66 65 66 66 65 65 65 63 66 69 72 75 76 76 75
50 51 51 55 56 53 53 54 54 54 56 51 52 55 58 60 60 61 63 64 65 66 66 65 65 66 66 66 66 65 66 65 65 65 65 64 65 65 69 74 75 76 76
48 48 51 54 52 52 52 53 54 55 53 53 51 52 56 58 59 60 61 62 64 64 65 66 66 65 65 65 66 66 65 65 64 65 66 66 67 68 67 70 72 74 75
48 48 49 50 51 52 53 53 53 53 52 52 51 52 55 57 59 59 61 62 63 63 64 64 65 65 64 64 65 66 66 65 64 65 63 65 65 66 66 67 67 68 72
47 48 48 49 51 54 56 57 54 53 50 51 51 53 56 58 59 59 59 60 61 62 63 63 63 65 64 64 64 64 65 65 64 63 64 65 65 64 62 64 64 65 66
47 46 47 48 52 55 53 53 53 53 52 51 52 56 56 57 57 57 58 58 59 60 62 63 62 61 62 61 61 61 60 63 63 63 63 64 64 65 63 63 62 63 65
44 44 45 47 51 54 53 53 53 53 51 49 54 55 57 56 56 55 54 54 57 59 60 62 61 60 59 59 58 56 55 58 61 63 63 63 63 63 62 62 61 62 63
43 42 45 46 48 51 50 53 53 55 54 52 51 53 54 53 52 51 51 52 54 57 60 62 61 60 59 58 60 59 54 52 55 61 62 63 62 62 63 63 63 62 62
43 43 44 46 47 49 49 49 49 48 47 48 48 50 51 50 49 49 49 50 51 54 58 60 62 60 60 58 59 61 59 57 54 52 56 59 62 62 63 63 63 63 63
43 42 42 44 45 45 46 45 45 44 45 44 44 44 46 46 48 49 48 48 49 50 52 54 56 58 59 59 58 58 59 59 57 55 54 56 56 58 61 62 62 63 64
42 42 42 42 44 44 44 44 42 41 41 41 41 41 43 43 46 47 47 47 48 48 49 49 50 51 52 53 54 57 59 57 56 56 55 55 55 58 58 60 60 61 62
MSLP
1015.67 1015.18 1014.67 1014.77 1014.82 1014.90 1015.04 1015.10 1015.12 1015.18 1015.23 1015.26 1015.29 1015.35 1015.37 1015.41 1015.45 1015.47 1015.51 1015.51 1015.56 1015.59 1015.59 1015.50 1015.44 1015.44 1015.44 1015.44 1015.48 1015.49 1015.54 1015.56 1015.55 1015.60 1015.71 1015.70 1015.69 1015.68 1015.78 1015.85 1015.85 1015.77 1015.65
1016.01 1015.13 1014.70 1014.86 1014.98 1015.06 1015.20 1015.29 1015.33 1015.32 1015.32 1015.33 1015.34 1015.49 1015.55 1015.59 1015.60 1015.63 1015.60 1015.59 1015.58 1015.58 1015.63 1015.61 1015.57 1015.56 1015.63 1015.67 1015.73 1015.71 1015.76 1015.84 1015.85 1015.87 1015.84 1015.91 1015.85 1015.88 1016.05 1016.15 1016.12 1015.99 1015.89
1015.82 1015.18 1014.86 1014.99 1015.16 1015.17 1015.30 1015.34 1015.39 1015.44 1015.47 1015.50 1015.52 1015.55 1015.54 1015.48 1015.61 1015.72 1015.74 1015.69 1015.62 1015.60 1015.63 1015.62 1015.63 1015.64 1015.68 1015.79 1015.90 1015.93 1015.97 1015.98 1016.03 1016.07 1016.10 1016.10 1016.08 1016.02 1016.19 1016.33 1016.30 1016.23 1016.18
1015.80 1015.37 1015.10 1015.10 1015.29 1015.41 1015.43 1015.53 1015.53 1015.56 1015.62 1015.66 1015.64 1015.63 1015.61 1015.63 1015.62 1015.70 1015.76 1015.78 1015.74 1015.66 1015.66 1015.66 1015.67 1015.73 1015.77 1015.81 1015.87 1015.98 1016.06 1016.19 1016.25 1016.31 1016.33 1016.27 1016.18 1016.17 1016.21 1016.29 1016.36 1016.36 1016.38
1015.93 1015.52 1015.21 1015.23 1015.33 1015.46 1015.57 1015.55 1015.59 1015.59 1015.62 1015.64 1015.62 1015.63 1015.62 1015.63 1015.64 1015.70 1015.71 1015.77 1015.78 1015.74 1015.70 1015.62 1015.65 1015.79 1015.89 1015.90 1015.99 1016.03 1016.08 1016.23 1016.32 1016.43 1016.56 1016.51 1016.39 1016.25 1016.25 1016.32 1016.37 1016.45 1016.53
1016.27 1015.92 1015.69 1015.49 1015.49 1015.50 1015.44 1015.57 1015.59 1015.62 1015.58 1015.57 1015.62 1015.69 1015.62 1015.56 1015.58 1015.60 1015.63 1015.70 1015.79 1015.83 1015.72 1015.46 1015.53 1015.65 1015.80 1015.91 1015.94 1016.11 1016.20 1016.26 1016.38 1016.44 1016.44 1016.57 1016.61 1016.36 1016.34 1016.43 1016.53 1016.57 1016.63
1016.78 1016.44 1016.17 1016.01 1015.84 1015.75 1015.69 1015.68 1015.67 1015.59 1015.55 1015.55 1015.50 1015.38 1015.47 1015.47 1015.48 1015.50 1015.59 1015.56 1015.58 1015.61 1015.69 1015.59 1015.50 1015.63 1015.68 1015.78 1015.84 1015.92 1016.11 1016.27 1016.48 1016.58 1016.59 1016.57 1016.56 1016.33 1016.43 1016.49 1016.54 1016.57 1016.65
1017.38 1017.01 1016.71 1016.48 1016.36 1016.24 1016.13 1015.93 1015.79 1015.72 1015.62 1015.58 1015.55 1015.45 1015.44 1015.42 1015.41 1015.37 1015.37 1015.39 1015.46 1015.48 1015.38 1015.33 1015.44 1015.58 1015.68 1015.71 1015.74 1015.79 1015.95 1016.20 1016.37 1016.53 1016.57 1016.62 1016.55 1016.28 1016.34 1016.47 1016.52 1016.59 1016.64
1017.55 1017.35 1017.23 1017.00 1016.72 1016.52 1016.40 1016.21 1016.10 1015.91 1015.69 1015.59 1015.51 1015.47 1015.43 1015.33 1015.30 1015.26 1015.26 1015.22 1015.15 1015.16 1015.22 1015.30 1015.19 1015.22 1015.31 1015.51 1015.53 1015.62 1015.77 1016.01 1016.25 1016.34 1016.37 1016.49 1016.42 1016.15 1016.21 1016.36 1016.49 1016.52 1016.56
1017.84 1017.74 1017.64 1017.50 1017.30 1017.05 1016.78 1016.45 1016.19 1015.96 1015.79 1015.61 1015.51 1015.43 1015.40 1015.32 1015.26 1015.21 1015.11 1015.02 1014.97 1014.94 1014.91 1014.91 1014.90 1014.96 1014.94 1015.04 1015.27 1015.39 1015.53 1015.77 1016.07 1016.16 1016.13 1016.17 1016.13 1015.99 1016.07 1016.29 1016.40 1016.47 1016.55
1018.36 1018.34 1018.08 1017.92 1017.67 1017.46 1017.10 1016.78 1016.58 1016.20 1015.90 1015.71 1015.53 1015.38 1015.33 1015.19 1015.09 1014.99 1014.97 1014.91 1014.81 1014.71 1014.61 1014.59 1014.51 1014.50 1014.61 1014.79 1014.92 1015.07 1015.22 1015.52 1015.82 1015.93 1015.93 1015.86 1015.87 1015.72 1015.75 1016.06 1016.23 1016.33 1016.44
1019.05 1018.74 1018.60 1018.23 1018.00 1017.72 1017.33 1017.16 1016.92 1016.59 1016.24 1015.88 1015.61 1015.39 1015.21 1015.13 1014.79 1014.71 1014.67 1014.68 1014.64 1014.56 1014.45 1014.27 1014.22 1014.21 1014.26 1014.44 1014.61 1014.74 1014.95 1015.11 1015.42 1015.56 1015.59 1015.53 1015.50 1015.46 1015.39 1015.68 1015.96 1016.05 1016.15
1019.56 1019.28 1018.91 1018.52 1018.23 1018.01 1017.80 1017.45 1017.12 1016.86 1016.49 1016.05 1015.66 1015.31 1015.05 1014.82 1014.62 1014.51 1014.40 1014.33 1014.30 1014.27 1014.28 1014.19 1014.07 1013.94 1014.02 1014.16 1014.29 1014.42 1014.56 1014.79 1014.94 1015.12 1015.08 1015.11 1015.14 1015.09 1015.02 1015.30 1015.60 1015.81 1015.93
1019.85 1019.68 1019.25 1018.80 1018.45 1018.17 1017.92 1017.63 1017.29 1016.98 1016.60 1016.26 1015.81 1015.44 1015.16 1014.81 1014.53 1014.36 1014.22 1013.95 1013.87 1013.74 1013.75 1013.69 1013.63 1013.51 1013.44 1013.53 1013.72 1013.98 1014.17 1014.37 1014.49 1014.58 1014.65 1014.64 1014.71 1014.68 1014.60 1014.73 1015.15 1015.46 1015.61
1020.06 1019.68 1019.31 1018.94 1018.58 1018.30 1017.91 1017.65 1017.37 1016.99 1016.61 1016.23 1015.85 1015.44 1015.15 1014.90 1014.68 1014.19 1014.05 1013.77 1013.44 1013.23 1013.21 1013.08 1013.01 1012.99 1013.05 1013.02 1013.18 1013.31 1013.52 1013.65 1013.78 1013.96 1014.10 1014.16 1014.28 1014.31 1014.28 1014.27 1014.52 1014.86 1015.14
1020.33 1019.98 1019.64 1019.15 1018.70 1018.43 1018.04 1017.68 1017.28 1016.94 1016.56 1016.16 1015.79 1015.35 1015.01 1014.83 1014.58 1014.25 1014.03 1013.66 1013.24 1012.97 1012.75 1012.53 1012.41 1012.34 1012.47 1012.62 1012.76 1012.82 1012.91 1013.06 1013.17 1013.38 1013.58 1013.70 1013.78 1013.90 1013.85 1013.85 1013.98 1014.22 1014.52
1020.74 1020.43 1019.92 1019.26 1018.76 1018.63 1018.22 1017.74 1017.34 1016.82 1016.33 1016.10 1015.70 1015.26 1014.90 1014.55 1014.35 1014.10 1013.85 1013.50 1013.06 1012.66 1012.37 1012.05 1012.03 1011.94 1012.08 1012.26 1012.30 1012.25 1012.22 1012.42 1012.61 1012.73 1013.05 1013.26 1013.28 1013.32 1013.37 1013.37 1013.41 1013.65 1013.87
1021.02 1020.59 1020.12 1019.50 1019.02 1018.62 1018.16 1017.67 1017.16 1016.67 1016.33 1015.86 1015.52 1015.11 1014.72 1014.28 1013.95 1013.74 1013.50 1013.08 1012.70 1012.51 1012.26 1012.02 1011.72 1011.68 1011.73 1011.79 1011.78 1011.73 1011.80 1011.92 1012.07 1012.23 1012.41 1012.58 1012.64 1012.77 1012.88 1012.90 1012.79 1013.01 1013.29
1021.14 1020.76 1020.23 1019.72 1019.32 1018.69 1018.03 1017.50 1017.01 1016.42 1016.06 1015.61 1015.27 1014.90 1014.47 1014.18 1013.82 1013.54 1013.26 1012.85 1012.50 1012.25 1012.06 1011.83 1011.34 1011.24 1011.22 1011.16 1011.07 1011.15 1011.32 1011.41 1011.50 1011.73 1012.05 1012.06 1012.39 1012.64 1012.54 1012.58 1012.62 1012.52 1012.65
1020.99 1020.67 1020.31 1019.82 1019.19 1018.54 1017.87 1017.30 1016.75 1016.30 1015.94 1015.46 1015.09 1014.68 1014.30 1014.03 1013.82 1013.42 1012.96 1012.58 1012.19 1012.07 1011.67 1011.44 1011.14 1010.70 1010.61 1010.48 1010.53 1010.60 1010.83 1010.88 1010.99 1011.03 1011.11 1011.16 1011.49 1011.90 1012.49 1012.53 1012.50 1012.47 1012.52
1020.89 1020.72 1020.45 1019.86 1019.34 1018.78 1018.09 1017.63 1017.08 1016.63 1016.11 1015.65 1015.26 1014.88 1014.55 1014.43 1014.01 1013.42 1013.11 1012.67 1012.10 1011.48 1011.20 1010.98 1010.61 1010.50 1010.27 1010.32 1010.56 1010.59 1010.32 1010.31 1010.37 1010.39 1010.41 1010.62 1010.71 1010.97 1011.29 1012.14 1012.36 1012.39 1012.36
1021.30 1021.06 1020.64 1020.21 1019.69 1019.06 1018.52 1017.97 1017.57 1016.96 1016.42 1016.13 1015.49 1015.24 1014.88 1014.78 1014.74 1013.89 1013.41 1013.07 1012.19 1011.26 1010.51 1010.33 1010.34 1010.00 1009.85 1009.94 1010.07 1010.39 1010.26 1010.15 1009.82 1009.74 1009.80 1010.00 1010.13 1010.61 1010.58 1010.49 1011.72 1011.82 1011.97
1021.38 1021.17 1020.84 1020.42 1019.97 1019.29 1018.77 1018.23 1017.66 1016.99 1016.60 1016.12 1015.94 1015.64 1015.11 1015.26 1015.13 1014.50 1013.95 1013.29 1012.27 1011.32 1010.06 1009.53 1009.64 1009.70 1009.49 1009.45 1009.34 1009.74 1009.85 1009.65 1009.57 1009.11 1009.05 1009.26 1009.62 1009.85 1010.11 1009.68 1010.43 1010.94 1011.27
1021.27 1021.10 1020.84 1020.43 1020.02 1019.44 1019.01 1018.49 1018.03 1017.64 1017.28 1017.10 1016.80 1016.22 1015.82 1015.61 1015.50 1014.51 1014.16 1013.55 1012.90 1011.53 1010.11 1009.28 1008.85 1009.07 1009.12 1009.12 1009.04 1009.06 1009.23 1009.38 1009.52 1009.25 1008.98 1008.90 1009.04 1009.15 1009.17 1009.39 1009.57 1010.19 1010.38
1021.14 1021.05 1020.85 1020.53 1020.14 1019.59 1019.19 1018.91 1018.59 1018.34 1017.98 1017.66 1017.22 1016.69 1016.26 1015.83 1015.40 1014.78 1014.61 1013.91 1013.52 1012.53 1011.32 1010.17 1009.16 1008.86 1008.54 1008.89 1009.07 1008.96 1009.12 1009.07 1009.11 1008.74 1009.17 1009.00 1009.17 1008.58 1008.87 1009.15 1009.39 1009.73 1009.66
1021.05 1021.06 1020.86 1020.39 1020.07 1019.85 1019.54 1019.22 1018.89 1018.65 1018.49 1018.19 1017.73 1017.39 1017.12 1016.62 1015.24 1015.19 1015.06 1014.66 1014.13 1013.35 1012.40 1011.44 1010.57 1009.78 1009.31 1009.02 1009.51 1009.98 1008.82 1008.62 1008.52 1008.50 1008.91 1008.99 1009.00 1008.56 1008.65 1008.83 1008.88 1009.08 1009.26
Wind_Speed
6 11 7 6 5 5 5 2 2 3 4 5 7 6 6 5 5 5 5 5 5 4 4 5 7 6 6 7 7 9 9 9 9 9 6 6 6 10 10 10 9 6 10
10 9 2 4 6 5 3 3 2 3 4 4 4 5 5 4 3 3 4 5 5 4 4 3 5 6 7 6 7 9 9 8 8 7 6 5 6 9 9 8 8 6 10
8 8 2 4 3 4 2 3 2 2 3 2 2 4 5 4 6 3 4 5 5 5 4 5 4 7 7 7 7 7 7 9 10 8 7 4 4 9 9 7 7 7 7
9 6 3 4 3 3 1 1 2 2 2 2 3 3 4 3 3 4 5 5 6 5 5 6 4 8 8 8 8 7 7 8 8 5 2 3 4 8 8 8 7 7 7
8 9 5 2 3 3 3 1 1 2 3 4 5 5 5 5 5 6 6 6 6 5 6 9 5 9 7 6 8 8 7 5 1 2 3 2 2 6 8 8 7 7 7
7 10 11 7 2 1 3 1 2 3 4 5 6 7 7 6 6 7 7 7 6 6 7 7 10 11 9 8 8 8 7 5 2 1 4 5 3 6 7 7 8 7 6
7 7 8 16 13 6 4 3 4 6 5 6 6 6 5 6 7 8 8 8 8 8 9 9 10 12 11 11 11 10 8 5 3 1 3 4 5 8 8 8 7 7 7
6 7 8 11 13 14 14 11 9 8 8 8 8 7 8 9 9 9 9 9 10 11 11 11 11 13 12 12 12 10 8 7 4 4 5 4 8 9 9 9 8 8 7
7 6 6 7 9 11 11 12 13 13 11 10 10 10 9 9 8 10 10 10 11 12 12 12 11 15 14 14 13 11 9 9 5 4 5 4 10 11 11 10 10 10 9
7 7 7 7 7 8 7 11 12 12 12 12 11 9 10 9 10 10 10 10 11 12 12 12 12 14 17 15 14 12 10 9 5 5 4 4 12 12 11 11 11 11 10
7 7 7 8 8 7 7 7 11 12 12 10 8 8 8 5 6 7 8 11 12 13 13 14 14 14 16 12 13 12 11 4 5 4 3 10 14 15 13 13 13 12 12
6 7 7 7 8 7 7 7 7 7 6 5 5 6 5 6 6 7 7 10 14 15 14 14 15 13 10 5 6 10 5 5 4 4 4 12 17 18 16 15 15 14 14
4 5 8 7 7 7 6 5 3 4 4 5 7 6 5 5 5 4 4 5 5 8 7 8 8 7 6 5 6 6 6 5 4 4 6 14 16 19 19 17 17 16 16
6 6 7 8 7 7 4 4 4 4 4 4 5 7 5 4 4 5 5 6 4 5 7 7 6 8 9 9 9 8 8 6 5 4 6 13 15 20 21 19 18 18 17
8 9 9 8 7 8 7 4 5 5 5 5 5 6 5 5 6 5 5 6 5 5 7 7 8 7 9 9 8 10 10 10 9 5 4 11 15 17 20 19 20 20 20
7 8 8 9 7 9 8 7 6 4 6 5 5 6 7 5 5 6 6 7 7 7 7 8 8 8 8 8 9 10 11 9 9 8 5 5 14 17 20 22 21 22 21
6 7 8 9 9 8 8 7 6 6 6 5 5 7 7 6 5 6 7 7 7 7 10 7 6 6 6 7 10 10 9 10 8 10 8 6 6 15 18 22 22 22 21
6 7 7 9 9 10 9 8 7 7 5 6 5 4 7 7 6 7 7 7 7 6 6 7 7 6 7 8 9 9 8 8 8 8 8 6 7 6 11 21 23 22 22
6 7 9 9 9 11 9 6 6 8 5 5 4 5 7 6 7 5 6 7 7 7 8 8 8 7 7 8 8 7 6 6 7 6 5 3 2 4 3 8 16 14 21
5 6 8 8 10 10 10 10 7 6 4 4 5 4 6 6 9 8 6 7 6 7 9 9 10 8 8 9 6 7 7 8 7 7 8 7 7 6 4 4 4 6 13
7 8 8 9 11 9 8 8 6 8 8 5 6 8 9 11 11 11 8 9 6 6 8 11 9 8 8 4 4 4 4 8 8 7 7 7 9 10 7 7 5 4 6
6 6 7 8 10 7 6 6 3 6 3 3 6 7 11 14 12 10 10 11 12 9 8 9 9 8 4 5 5 2 3 3 7 8 6 8 10 7 9 10 9 9 9
6 6 6 6 7 7 7 5 6 4 3 5 7 6 9 11 11 12 13 12 13 11 10 9 7 9 9 5 8 4 3 5 2 4 9 9 9 8 8 8 12 12 12
4 5 5 6 6 5 6 5 5 4 4 4 5 6 6 9 9 10 12 13 14 11 9 9 7 8 6 7 3 6 5 3 4 1 2 5 7 8 8 6 8 10 10
4 4 5 5 5 5 5 5 4 3 3 3 3 5 6 6 8 12 12 12 12 11 11 9 6 3 3 8 4 3 5 6 5 2 3 2 2 3 3 5 5 5 6
4 3 4 3 3 5 5 4 4 5 5 4 6 5 6 5 5 10 12 10 10 10 12 10 8 6 6 8 8 9 10 5 2 3 3 3 3 2 3 3 4 3 2
Wind_Direction
310 313 260 171 139 103 76 86 141 125 136 124 129 120 120 119 116 122 134 133 141 136 152 157 136 131 129 113 104 112 114 112 116 119 107 111 125 110 102 96 80 67 89
279 310 247 160 145 113 85 43 170 162 159 185 145 140 139 126 123 134 148 161 164 163 183 212 159 149 137 119 110 121 121 120 112 109 113 112 109 113 101 91 86 94 90
314 340 25 152 127 131 128 74 131 193 188 208 156 170 184 204 156 180 180 189 192 193 206 224 223 155 150 142 126 123 124 128 117 104 98 98 121 107 106 103 100 100 100
319 341 321 148 148 151 152 100 117 170 210 226 215 204 226 240 196 208 213 218 225 224 232 246 257 174 165 158 138 137 138 136 130 94 105 122 126 127 127 126 121 116 107
347 348 20 178 164 180 185 185 215 215 208 220 222 226 228 234 231 231 234 235 238 257 270 256 211 177 180 179 163 165 158 157 169 359 252 170 150 150 144 140 135 130 127
3 6 4 24 299 239 192 215 268 259 251 229 245 259 232 223 241 245 241 236 241 256 267 234 187 186 187 197 191 192 186 177 125 323 163 190 186 173 152 147 150 152 146
359 6 14 20 5 7 329 292 287 278 271 264 261 266 246 233 244 254 246 239 233 239 253 248 208 203 199 201 208 204 202 185 146 179 184 192 196 183 169 168 167 163 159
6 357 7 14 17 16 1 342 327 310 289 276 267 262 258 255 255 254 252 245 245 245 239 240 230 218 215 212 214 213 209 195 176 196 202 202 223 193 183 180 179 178 175
15 16 6 1 0 7 358 0 0 344 308 284 276 273 265 260 257 258 257 251 247 243 245 243 246 225 217 217 218 217 217 212 184 202 198 208 231 204 194 190 190 189 187
12 18 6 0 355 350 341 341 347 342 345 328 298 281 276 272 266 263 259 253 252 248 243 241 238 227 228 218 215 218 218 220 203 213 215 206 218 219 205 202 201 200 198
6 12 5 1 352 345 333 340 342 335 335 337 331 312 294 263 259 259 256 254 254 251 247 245 238 231 232 220 213 214 214 206 204 213 214 220 217 221 210 208 209 209 209
0 357 8 3 356 351 348 342 332 327 320 315 313 307 296 279 257 250 251 254 258 258 254 247 246 241 228 204 218 219 214 208 205 212 214 229 221 223 216 210 213 213 212
353 1 356 354 350 359 352 338 334 329 318 314 309 302 298 300 292 262 247 250 247 254 254 255 250 236 217 202 212 208 222 214 212 214 223 225 226 224 223 213 215 218 218
7 354 349 349 350 347 336 336 321 330 326 312 306 307 308 300 287 280 269 253 234 239 237 232 232 231 218 210 206 209 212 220 217 220 224 228 229 226 226 218 217 220 221
8 350 347 338 345 344 335 325 321 320 317 302 305 297 293 293 291 288 277 275 256 243 235 233 229 229 225 215 214 211 212 217 216 219 217 225 229 230 230 230 218 219 222
352 346 336 336 342 338 335 325 313 303 299 308 304 296 300 284 287 284 281 276 271 265 252 242 232 220 222 219 219 217 220 222 220 221 224 228 229 232 230 232 227 220 222
341 327 334 335 342 333 326 321 316 305 314 296 288 298 298 295 284 282 284 281 275 272 266 247 243 237 228 228 231 223 216 222 219 221 228 233 235 231 231 229 229 224 223
338 336 324 338 333 334 327 321 316 309 303 299 305 295 288 285 282 286 282 274 275 272 268 258 241 234 237 233 234 229 225 226 220 217 227 225 226 233 231 233 230 225 225
343 335 337 338 336 330 324 309 297 298 293 289 294 301 296 294 290 288 295 292 281 274 278 272 251 233 232 233 224 223 226 220 204 195 202 209 268 261 245 248 241 240 227
350 345 342 340 344 342 345 337 325 313 293 302 314 309 317 330 323 312 298 280 273 283 284 276 262 241 238 236 233 233 224 225 214 207 211 213 203 200 263 289 287 268 262
2 356 345 339 342 349 343 339 332 331 322 329 349 357 9 2 353 342 318 299 274 257 269 281 265 251 244 225 221 240 233 224 217 212 206 213 217 225 203 229 243 278 263
340 341 336 334 329 336 331 343 315 304 319 298 2 2 16 7 355 349 341 323 302 273 258 258 263 260 246 191 209 219 242 236 227 225 212 208 210 209 204 193 222 229 243
338 334 326 312 310 336 345 344 339 1 348 11 7 354 6 6 357 357 344 336 322 296 265 254 242 244 258 216 210 187 202 229 190 219 219 219 215 206 216 200 211 219 224
310 317 312 311 317 343 342 349 10 12 14 1 359 350 360 2 351 4 349 349 336 327 320 263 245 238 229 253 215 228 248 230 208 232 264 223 217 216 212 207 203 217 219
293 304 303 320 339 346 353 356 352 359 15 340 331 8 4 360 3 10 359 359 344 337 346 334 12 357 253 240 220 240 234 226 223 168 225 238 248 208 212 196 201 207 201
293 299 297 353 353 348 358 8 27 31 16 359 2 5 356 319 20 14 1 356 350 349 352 351 2 30 47 74 27 336 242 201 217 189 198 195 217 266 225 212 203 218 251